Terug naar catalogus

STARLINK-35434

ActiefCommunicatieVLEO
NORAD 66246·PAYLOAD·🇺🇸 United States

Gelanceerd Oct 29, 2025 vanaf Cape Canaveral Space Force Station

Loading…

Volgende Passages (komende 24 uur)

TLE

VersSource: CelesTrak SupGP

Epoch: Sep 14, 2026, 21:13 UTC

1 66246C 25245N   26257.88451389 -.00042627  00000+0 -13708-2 0  2570
2 66246  53.1575 123.7745 0001348  83.7842 211.2798 15.31721953    17

Volg STARLINK-35434 in realtime met AllMySat

Download on the App Store